{"data":{"norad_id":66485,"intl_designator":"2025-263A","name":"STARLINK-34774","alt_names":[],"object_type":"PAYLOAD","status":"ACTIVE","operator":null,"country":"US","launch_date":"2025-11-15","launch_site_code":"AFETR","launch_vehicle":null,"mission":null,"orbit_class":"UNKNOWN","rcs_meters":null,"size_class":null,"mass_kg":null,"dimensions":null,"purposes":["comms"],"wikipedia_slug":null,"has_3d_model":false,"image_url":null,"decayed_at":null,"tle_current":{"epoch":"2026-09-20T21:03:52.161120Z","epoch_age_seconds":57285,"freshness":"FRESH","line1":"1 66485U 25263A   26263.87768705  .00011491  00000+0  42634-3 0  9991","line2":"2 66485  43.0005 328.1029 0001786 276.1257  83.9391 15.27586757 48750","mean_motion":15.27586757,"eccentricity":0.0001786,"inclination_deg":43.0005,"raan_deg":328.1029,"arg_perigee_deg":276.1257,"mean_anomaly_deg":83.9391,"bstar":0.00042634,"rev_number":4875,"period_min":94.266331741969,"perigee_km":481.80345900224,"apogee_km":484.25426744859,"semimajor_km":6861.1658632254,"source":"CELESTRAK","updated_at":"2026-09-21T09:00:35.918500Z"}}}